EHI
1 1 0 0 0 0 0 0 0 0 0 0 0 1 3 2 1 0 2 13 29 35 27 27 35 38 39 40 38 34 30 26 21 14 8 5 2 0 0 0 0 0 0 0 0 0 0 0 0
1 0 0 0 0 0 0 0 0 0 0 0 1 2 3 2 1 1 5 17 34 39 31 31 39 42 41 41 39 33 27 21 16 10 6 4 1 0 0 0 0 0 0 0 0 0 0 0 0
0 0 0 0 0 0 0 0 0 0 0 0 1 3 3 3 2 4 12 27 42 44 36 37 46 49 45 43 39 31 22 17 12 6 3 2 1 0 0 0 0 0 0 0 0 0 0 0 0
0 0 0 0 0 0 0 0 0 0 1 1 2 3 3 3 5 12 25 41 53 50 39 42 53 54 47 45 39 28 18 13 9 4 1 1 0 0 0 0 0 0 0 0 0 0 0 0 0
0 0 0 0 0 0 0 1 1 1 2 4 6 6 3 4 14 29 42 52 61 58 47 49 57 56 49 45 39 27 15 9 6 3 1 0 0 0 0 0 0 0 1 0 0 0 0 0 0
0 0 0 0 0 0 0 0 1 3 6 9 13 12 6 9 25 44 55 59 65 68 61 57 58 55 50 45 38 26 13 6 3 1 0 0 0 0 0 0 0 0 0 0 0 0 0 0 0
0 0 0 0 0 0 0 0 1 4 9 14 17 15 12 19 35 53 63 67 71 75 71 64 58 52 47 42 36 26 13 5 1 0 0 0 0 0 0 1 0 0 0 0 0 0 0 0 0
0 0 0 0 0 0 0 0 0 4 11 17 17 13 19 36 53 64 71 76 78 78 74 69 61 51 41 33 30 24 14 6 1 0 0 0 0 0 0 0 0 0 0 0 0 0 0 0 0
0 0 0 0 0 0 0 0 0 4 11 16 16 17 34 61 75 76 79 82 82 79 74 69 64 53 39 28 22 19 12 5 1 0 0 0 0 0 0 0 0 0 0 0 0 0 0 0 0
0 0 0 0 0 0 0 1 2 5 10 13 19 35 61 82 87 83 81 81 82 79 73 67 60 53 42 31 22 17 10 4 1 1 0 0 0 0 0 0 0 0 0 0 1 0 0 0 0
0 0 0 0 0 0 1 3 5 7 8 10 27 57 82 90 88 82 78 75 75 76 72 64 56 50 43 35 27 20 11 4 1 1 1 0 0 0 0 0 0 0 0 0 0 0 0 0 0
0 0 0 0 0 0 1 3 5 7 7 12 36 68 87 89 85 78 72 69 69 72 70 62 53 47 42 37 31 21 11 6 3 2 1 0 0 0 0 0 0 0 0 0 0 0 0 0 0
0 0 0 0 0 0 1 2 3 4 7 19 44 70 84 86 83 76 69 66 66 65 63 58 50 43 38 35 27 18 10 6 4 2 1 0 0 0 0 0 0 0 0 0 0 0 0 0 0
0 0 0 0 0 0 1 1 1 2 9 23 45 67 79 82 81 77 71 67 64 59 55 53 45 37 31 26 20 13 9 6 3 2 0 0 0 0 0 0 0 0 0 0 0 0 0 0 0
0 0 0 0 0 0 1 0 0 2 9 23 41 59 71 75 76 75 72 70 63 55 50 46 37 28 21 17 13 10 6 4 3 2 0 0 0 0 0 0 0 0 0 0 0 0 0 0 0
0 0 0 0 0 0 0 0 0 2 10 23 38 52 62 65 66 68 68 67 61 52 45 39 29 20 14 10 8 6 4 3 3 2 0 0 0 0 0 0 0 0 0 0 0 0 0 0 0
0 0 0 0 0 0 0 0 1 3 10 22 35 47 54 55 57 61 61 60 56 48 41 34 24 16 10 7 4 4 3 3 2 1 0 0 0 0 0 0 0 0 0 0 0 0 0 0 0
0 0 0 0 0 0 0 1 2 4 11 21 31 41 46 47 50 54 54 53 51 45 37 30 21 14 8 5 3 3 3 2 1 1 0 0 0 0 0 0 0 0 0 0 0 0 0 0 0
0 0 0 0 0 0 0 1 3 5 11 20 27 32 37 40 44 48 49 48 46 41 32 24 18 12 6 3 3 2 1 1 0 0 0 0 0 0 0 0 0 0 0 0 0 0 0 0 0
0 0 0 0 0 0 0 1 2 4 10 17 22 25 31 36 40 43 43 41 40 37 29 21 15 11 6 3 2 1 0 0 0 0 0 0 0 0 0 0 0 0 0 0 0 0 0 0 0
0 0 0 0 0 0 0 0 1 3 7 13 17 20 27 33 37 39 38 35 35 35 29 21 16 12 7 3 2 2 1 0 0 0 0 0 0 0 0 0 0 0 0 0 0 0 0 0 0
0 0 0 0 0 0 0 0 0 1 4 9 12 16 22 28 33 33 32 32 32 32 28 22 18 15 9 5 4 3 2 1 0 0 0 0 0 0 0 0 0 0 0 0 0 0 0 0 0
0 0 0 0 0 0 0 0 0 0 1 5 9 12 17 24 26 25 25 28 30 28 24 21 19 17 11 5 4 3 2 1 0 0 0 0 0 0 0 0 0 0 0 0 0 0 0 0 0
0 0 0 0 0 0 0 0 0 0 0 2 5 8 13 20 21 19 21 25 27 24 21 19 18 15 9 4 3 2 1 0 0 0 0 0 0 0 0 0 0 0 0 0 0 0 0 0 0
0 0 0 0 0 0 0 0 0 0 0 0 3 6 10 16 20 21 22 23 24 22 19 17 15 13 9 5 3 1 0 0 0 0 0 0 0 0 0 0 0 0 0 0 0 0 0 0 0
0 0 0 0 0 0 0 0 0 0 0 0 3 7 11 14 17 20 20 19 20 19 17 15 15 14 12 8 4 1 0 0 0 0 0 0 0 0 0 0 0 0 0 0 0 0 0 0 0
0 0 0 0 0 0 0 0 0 0 0 0 4 9 12 12 11 12 13 13 15 14 13 12 14 14 13 11 6 2 0 0 0 0 0 0 0 0 0 0 0 0 0 0 0 0 0 0 0
0 0 0 0 0 0 0 0 0 0 0 0 3 8 11 9 7 6 6 8 9 8 8 9 11 13 12 10 6 3 1 0 0 0 0 0 0 0 0 0 0 0 0 0 0 0 0 0 0
0 0 0 0 0 0 0 0 0 0 0 0 1 5 9 9 6 4 4 4 4 4 5 6 8 10 10 8 5 3 2 1 0 0 0 0 0 0 0 0 0 0 0 0 0 0 0 0 0
0 0 0 0 0 0 0 0 0 0 0 0 1 5 9 10 7 4 3 3 3 3 4 4 6 9 9 7 5 3 3 2 1 0 0 0 0 0 0 0 0 0 0 0 0 0 0 0 0
Wind_Speed
3 3 2 1 4 5 2 3 1 2 2 0 2 4 5 4 4 2 3 12 16 15 12 16 18 18 17 17 17 16 16 16 16 16 15 15 14 14 13 13 13 13 13 13 14 14 14 14 14
3 3 1 3 5 3 3 3 1 1 1 2 3 3 3 2 4 7 7 11 17 15 11 13 19 18 17 17 16 16 16 16 15 15 15 14 14 13 13 13 13 13 13 13 14 13 14 14 13
3 2 3 4 3 2 3 2 0 1 1 1 2 2 2 3 6 7 7 15 15 13 11 14 20 18 17 16 16 16 16 15 15 14 14 14 13 13 13 13 12 12 13 13 13 13 13 13 12
2 3 4 4 0 4 4 3 1 1 1 1 2 3 3 2 7 8 14 16 16 12 11 14 20 19 18 17 16 15 15 15 14 14 13 13 13 13 12 12 12 12 12 12 12 12 12 12 11
3 4 5 3 3 4 4 3 4 3 2 1 3 3 2 3 8 15 17 17 16 12 10 13 20 19 18 17 16 15 15 14 14 13 13 13 12 12 12 12 12 12 11 11 11 11 11 10 9
4 4 4 2 4 4 3 3 3 3 2 2 3 3 2 3 10 15 16 14 14 14 11 12 20 19 18 17 17 16 15 14 14 13 13 12 12 11 11 11 11 11 11 10 10 10 9 9 8
4 4 2 2 3 4 2 0 3 3 3 4 5 5 2 4 8 13 13 12 12 11 10 9 11 14 18 17 17 16 15 14 13 13 12 12 11 11 11 10 10 10 10 9 9 9 9 8 8
4 4 1 2 2 4 2 1 0 3 3 3 4 6 6 7 11 12 12 11 11 10 9 8 8 8 8 10 16 16 15 14 13 13 12 12 11 10 10 8 9 9 9 8 8 8 8 7 7
4 5 1 4 3 4 3 2 1 1 3 2 2 3 5 16 16 14 13 10 11 11 8 8 8 7 7 7 12 13 14 14 12 10 12 10 4 4 5 6 8 8 8 7 7 7 7 6 5
4 3 6 5 4 4 4 3 2 2 2 1 1 4 14 18 17 17 17 17 15 14 11 8 8 8 8 8 6 4 5 6 5 4 5 4 4 3 4 5 7 7 7 6 6 6 6 5 3
4 5 5 5 5 5 4 3 2 4 4 7 8 11 17 18 16 16 16 15 15 14 13 10 8 8 7 5 5 3 3 3 4 5 5 4 3 2 2 1 2 3 4 3 4 4 3 2 2
3 6 5 6 3 3 4 3 2 5 8 6 8 16 19 19 18 17 16 14 12 13 12 11 10 8 7 5 5 4 3 3 3 4 5 4 3 2 2 1 2 2 2 2 2 2 2 2 2
3 5 5 6 7 5 4 4 3 6 5 3 10 14 17 17 15 11 10 12 13 13 13 12 10 9 7 6 5 5 4 4 4 4 4 4 3 3 2 1 1 1 1 1 2 2 2 2 2
4 5 6 7 5 3 2 3 2 6 2 6 11 13 14 14 13 11 12 12 13 13 13 12 11 9 8 6 5 4 4 4 3 3 4 4 3 3 3 2 2 1 1 1 2 2 2 2 1
3 4 7 4 3 2 1 4 4 3 5 7 8 10 11 9 10 11 13 12 12 11 11 12 11 9 9 8 6 5 4 5 4 3 4 4 4 4 3 3 2 2 2 2 2 3 2 2 2
3 3 4 6 3 2 1 6 6 2 6 7 7 9 9 7 8 7 8 9 10 11 12 11 11 10 9 8 7 5 5 5 4 3 4 5 5 5 4 3 2 2 2 2 3 2 2 2 2
5 2 3 7 3 2 1 6 6 1 5 6 7 7 8 7 6 6 7 9 10 11 12 12 9 10 10 8 6 6 5 4 4 3 4 4 5 5 4 3 3 3 3 2 2 2 2 2 2
2 1 3 5 5 4 4 6 7 2 4 5 5 6 6 7 7 7 8 9 10 10 11 11 10 9 8 6 5 4 4 3 3 4 4 5 5 6 5 3 3 3 3 2 2 3 2 2 2
2 2 6 7 5 3 5 6 6 2 2 3 4 6 7 7 6 7 8 9 10 10 10 11 11 9 8 6 6 6 5 4 4 4 5 6 6 6 5 4 4 4 3 3 4 3 3 2 2
3 3 6 7 2 2 4 6 4 1 2 4 6 7 7 7 7 7 8 9 11 11 11 10 11 10 9 6 5 4 4 3 4 3 4 6 6 6 6 5 4 4 3 3 3 3 3 2 2
4 5 5 5 6 4 2 6 5 2 1 1 3 5 7 9 10 9 9 9 9 11 12 11 10 9 8 7 4 4 3 2 2 3 4 5 6 6 6 6 5 5 4 4 3 3 4 3 1
6 7 7 4 2 4 2 3 7 3 3 2 3 4 6 7 8 8 8 9 9 9 8 9 10 9 8 8 7 8 6 5 5 5 4 4 5 6 6 6 6 5 4 4 4 3 3 4 3
8 2 2 2 3 1 1 2 9 3 4 5 5 4 5 6 8 9 9 9 8 7 7 8 8 8 8 8 9 8 6 4 4 4 5 4 4 5 6 6 5 5 4 4 4 4 3 3 3
4 5 5 5 5 1 3 3 7 4 6 5 4 3 4 6 8 7 6 6 6 6 6 7 8 8 8 9 9 9 8 7 7 6 6 4 3 3 4 5 5 5 4 5 4 4 5 3 3
4 6 4 4 4 5 2 2 10 6 5 4 4 3 4 6 7 7 7 7 7 7 7 7 8 8 8 9 8 8 8 8 9 8 7 6 4 3 5 5 5 4 4 5 4 4 4 4 4
6 10 8 5 5 5 2 5 8 4 3 2 2 4 5 6 6 7 7 6 6 7 7 7 8 7 7 8 8 7 7 6 5 6 6 6 5 5 6 6 5 5 5 5 4 3 3 3 4
7 5 7 8 3 1 5 6 8 1 1 1 3 5 5 6 6 6 6 6 6 6 6 7 7 6 7 7 7 7 7 6 6 6 5 5 4 4 6 6 6 5 5 5 5 3 4 4 4
7 10 6 7 7 3 4 4 5 5 3 1 2 4 5 5 6 6 5 5 5 5 5 6 7 7 7 7 7 6 6 6 5 5 6 5 5 5 6 6 6 5 5 6 5 4 4 4 4
5 5 6 5 6 7 3 7 6 6 4 4 4 4 6 6 6 6 5 5 5 4 5 5 6 6 6 6 6 6 6 6 6 6 6 6 5 6 7 7 6 6 5 5 5 5 5 5 4
5 7 9 7 5 5 5 8 4 3 3 3 3 4 5 6 6 5 5 5 4 4 5 5 6 6 6 6 6 6 6 6 6 6 6 6 6 6 6 6 6 6 6 6 6 6 6 6 6
Wind_Direction
187 150 141 111 54 44 350 297 259 353 347 344 139 141 145 150 170 188 128 139 136 143 148 149 147 142 137 133 130 128 127 126 126 125 124 124 123 123 122 120 118 116 114 111 109 107 107 108 109
138 149 115 63 74 50 311 290 315 312 178 97 83 96 100 92 88 111 128 142 141 143 145 148 148 145 141 137 135 133 131 131 130 128 127 126 125 124 122 120 118 116 115 113 111 110 109 109 109
153 150 88 69 87 167 262 275 237 5 148 72 75 71 107 138 133 142 149 143 140 142 144 153 150 148 144 142 139 137 135 135 133 131 130 128 127 126 124 122 120 119 117 115 113 112 111 112 112
118 59 56 66 285 231 232 242 186 168 273 45 111 90 69 91 146 144 140 144 142 143 145 156 152 151 148 146 144 141 139 139 137 135 133 130 128 127 126 124 122 120 118 116 114 114 114 115 115
68 76 55 25 282 259 247 235 179 178 214 146 127 124 64 29 114 132 142 147 146 145 148 157 155 154 152 151 148 145 144 143 141 139 136 133 132 131 128 125 122 120 118 117 116 115 115 115 115
57 64 71 331 297 286 266 205 162 178 188 142 135 125 68 98 128 142 146 147 148 149 150 155 157 157 156 155 153 151 150 147 146 143 139 137 135 133 130 128 125 122 120 117 115 115 115 112 110
100 92 131 253 292 305 311 108 155 168 189 187 153 128 124 140 145 142 141 140 143 147 149 152 157 159 160 159 157 155 153 151 149 145 142 142 140 136 132 131 130 126 122 119 115 113 112 111 110
123 100 73 269 262 278 292 350 240 162 200 141 133 156 184 168 143 133 131 136 143 148 150 150 149 150 154 159 161 158 156 155 152 149 147 147 144 141 137 132 133 130 126 121 115 111 110 111 112
96 76 234 233 221 260 275 322 315 139 127 141 163 172 154 139 140 137 138 143 154 158 155 150 148 146 146 152 165 160 159 158 154 153 153 143 119 117 126 140 141 135 131 124 115 110 107 103 106
100 148 233 226 217 251 278 269 230 139 149 189 92 89 128 143 152 156 160 163 166 166 162 155 153 151 151 161 153 144 145 146 138 132 128 114 112 121 128 158 148 142 134 123 115 110 101 90 83
162 205 245 256 244 252 267 277 191 159 214 213 192 155 150 156 164 169 171 171 169 165 164 161 159 157 155 148 141 133 127 128 129 129 125 121 113 111 105 98 111 101 104 82 83 80 79 93 102
196 246 244 271 274 273 240 241 212 198 227 219 173 157 160 168 175 177 174 170 164 166 169 164 163 161 153 141 142 135 134 136 137 136 135 130 126 123 124 108 88 75 77 85 77 80 89 95 108
229 268 269 265 285 261 244 230 219 245 253 133 140 154 170 177 178 174 170 166 166 171 172 170 166 162 153 143 147 146 145 149 146 141 145 146 145 150 143 132 118 109 98 98 98 94 95 95 112
250 266 286 284 286 273 239 273 201 254 179 133 149 165 177 180 172 166 168 172 175 175 173 168 166 162 154 151 149 149 152 151 147 152 157 158 157 160 155 153 150 144 126 115 112 105 100 91 103
302 312 320 304 305 302 57 313 255 235 140 146 161 167 172 175 171 179 178 175 174 175 172 169 167 163 159 155 154 158 161 157 163 165 166 169 169 166 160 161 165 161 132 115 97 89 87 98 97
11 17 333 305 325 339 94 277 281 170 150 160 167 169 168 172 174 177 175 168 166 169 171 169 173 168 166 161 158 162 168 163 164 165 168 175 176 168 160 163 171 154 129 119 113 103 94 88 93
19 5 307 307 327 13 34 271 287 213 164 172 176 171 164 163 168 173 171 167 166 164 164 166 174 173 173 166 164 162 159 161 162 164 172 176 176 170 165 167 163 148 131 129 134 103 112 120 113
243 282 302 295 308 339 312 275 289 252 182 178 170 160 161 174 182 172 169 165 164 162 167 170 173 173 168 156 153 147 146 160 164 172 176 170 170 169 164 159 156 147 134 130 122 114 92 101 112
184 252 281 274 289 313 298 292 292 266 167 158 163 168 175 181 164 160 164 161 160 164 171 174 172 172 167 167 170 169 177 173 171 178 174 171 169 165 162 159 155 155 153 156 141 117 105 93 98
208 267 282 296 319 298 297 300 297 253 186 179 179 183 178 167 158 162 160 164 169 174 178 180 178 173 177 179 174 165 159 170 174 171 174 174 169 166 170 163 164 160 146 143 144 128 118 104 113
233 221 245 269 325 353 343 326 317 319 14 153 174 175 175 176 171 168 169 173 174 181 184 184 182 177 177 171 152 137 126 122 146 165 173 179 172 172 170 170 163 161 159 162 163 149 141 140 113
249 228 220 248 332 304 20 292 293 305 308 257 211 183 181 176 168 170 171 176 185 187 182 180 179 178 175 170 170 167 171 176 181 173 172 171 173 174 174 170 165 165 163 165 173 163 148 140 144
218 209 199 231 187 284 336 187 284 318 282 265 242 212 188 174 171 177 178 181 183 177 177 177 174 178 177 177 178 176 176 172 154 153 157 167 173 177 175 169 166 167 168 169 167 158 153 147 153
185 73 55 48 77 293 251 177 275 255 238 256 242 213 181 165 167 169 166 161 165 169 173 172 175 180 180 180 181 182 176 164 158 162 165 170 166 173 176 171 169 170 169 170 172 168 163 160 151
124 95 33 2 18 250 264 205 251 257 248 240 233 200 166 159 162 164 163 165 168 173 176 178 179 185 182 180 183 182 179 172 176 173 173 171 171 179 183 176 171 170 174 172 165 166 168 167 163
171 144 157 188 214 268 304 236 255 268 272 257 180 157 147 155 162 166 169 168 170 174 176 174 177 180 178 181 182 177 173 173 177 175 173 180 184 184 177 177 177 177 174 172 166 164 173 170 172
145 177 161 132 150 261 284 286 304 285 328 77 120 137 152 161 164 159 159 164 167 171 175 173 171 173 174 175 172 168 169 171 170 171 172 176 176 175 175 178 176 179 176 171 166 173 179 172 179
144 143 112 126 145 214 283 281 263 276 264 215 155 165 161 153 149 147 154 158 161 167 166 165 169 175 172 170 172 173 170 170 166 165 173 176 176 171 169 177 178 178 177 175 172 174 180 176 183
117 114 114 115 145 154 214 266 233 236 234 209 198 180 166 161 159 154 153 153 149 147 157 164 165 164 167 171 171 166 167 167 168 176 182 182 177 176 179 180 179 180 181 180 177 182 181 185 189
154 159 146 146 182 164 166 259 280 249 218 190 183 168 160 156 152 150 148 145 147 149 159 168 169 170 171 170 166 168 166 166 173 182 185 181 181 184 184 178 179 184 186 183 184 190 190 192 195